Tracking 33407 objects as of 5-Mar-2026
HD Live streaming from Space Station
objects crossing your sky now

IRIDIUM 128

Track IRIDIUM 128 now!
10-day predictions
IRIDIUM 128 is classified as:


NORAD ID: 42811
Int'l Code: 2017-039J
Perigee: 783.3 km
Apogee: 786.3 km
Inclination: 86.4 °
Period: 100.4 minutes
Semi major axis: 7155 km
RCS: Unknown
Launch date: June 25, 2017
Source: United States (US)
Launch site: AIR FORCE WESTERN TEST RANGE (AFWTR)
Your satellite tracking list
Your tracking list is empty




NASA's NSSDC Master Catalog

Two Line Element Set (TLE):
1 42811U 17039J   26063.76567849  .00000040  00000-0  73854-5 0  9991
2 42811  86.3909  68.8058 0002057  95.2284 264.9147 14.34217824455016
Source of the keplerian elements: AFSPC